Location: Sternwarte Hubelmatt
(47.0367°N, 8.3053°E)
Time: 15:23:15
(UTC+01:00)

BlueWalker 3 - Pass Details

Date: 27 January 2026
Orbit: 451 x 461 km, 53.2° (Epoch: 13 February)

Event Time Altitude Azimuth Distance (km) Brightness Sun altitude
Rises 18:01:23 0° 249° (WSW) 2,451 8.2 -7.1°
Reaches altitude 10° 18:03:32 10° 253° (WSW) 1,580 6.3 -7.4°
Maximum altitude 18:07:03 63° 335° (NNW) 509 2.0 -8.0°
Enters shadow 18:10:28 11° 57° (ENE) 1,538 3.8 -8.5°
